[[{"header":{"parameterUnit":"m.s-1","parameterCategory":2,"la1":30.2991,"la2":30.254,"lo1":-89.0895,"lo2":-89.0444,"dx":0.0017,"dy":0.0017,"nx":28,"ny":28,"refTime":"2022-11-26T09:00:00:Z","depth":"0","parameterNumber":2,"parameterNumberName":"U-component_of_CURRENTS"},"data":[0,0,0,0,0,0,0,0,0,0,0,0,0,0,0,0,0,0,0,0,0,0,0,0,0,0,0,0,0,0,0,0,0,0,0,0,0,0,0,0,0,0,0,0,0,0,0,0,0,0,0,0,0,0,0,0,0,0,0.42,0.4201,0,0.4206,0.4206,0.4205,0.4176,0.4175,0.4175,0.4174,0.4141,0.414,0.414,0,0,0,0,0,0,0,0,0,0,0,0,0,0.4173,0.4173,0.42,0.4201,0.4201,0.4206,0.4206,0.4205,0.4176,0.4175,0.4175,0.4174,0.4141,0.414,0.414,0,0,0,0,0,0,0,0,0,0,0,0,0,0.4179,0.4174,0.42,0.419,0.4189,0.4206,0.4206,0.4205,0.4176,0.4175,0.4175,0.4174,0.4141,0.414,0.414,0.4151,0,0,0.4138,0.4138,0,0,0,0,0,0,0,0,0.4179,0.4179,0.4191,0.4191,0.419,0.4193,0.4184,0.4187,0.4176,0.4177,0.4174,0.4174,0.4157,0.4155,0.4154,0.415,0.4148,0.4138,0.4137,0.4137,0.4137,0,0,0,0,0,0,0,0.4178,0.4179,0.4199,0.4192,0.4191,0.4188,0.4188,0.4184,0.4168,0.4177,0.4176,0.4183,0.4156,0.4154,0.4152,0.4148,0.4138,0.4137,0.4137,0.4137,0.42,0.4202,0,0,0,0,0,0,0.4185,0.4179,0.4199,0.4199,0.4186,0.4189,0.4189,0.419,0.4169,0.4166,0.4183,0.4181,0.4156,0.4153,0.4151,0.4194,0.4137,0.4137,0.4136,0.4198,0.4201,0.4203,0,0,0,0,0,0,0.4185,0.4187,0.4199,0.4192,0.4194,0.4191,0.4192,0.419,0.4194,0.4175,0.417,0.419,0.4155,0.4152,0.4165,0.4191,0.4136,0.4136,0.4196,0.4199,0.4202,0.4259,0,0,0,0,0,0,0.4184,0.4186,0.4192,0.4193,0.4195,0.4216,0.4193,0.4191,0.4201,0.4198,0.418,0.4175,0.4154,0.4167,0.4165,0.4189,0.4135,0.4193,0.4197,0.4201,0.4255,0.4264,0.4272,0,0,0,0,0,0.4183,0.4188,0.4192,0.4195,0.4201,0.4218,0.4218,0.4211,0.4202,0.421,0.4204,0.4176,0.419,0.4168,0.4165,0.419,0.4191,0.4196,0.4201,0.4251,0.4262,0.4271,0,0,0,0,0,0,0.4172,0.4186,0.419,0.4197,0.4214,0.4214,0.422,0.4221,0.4222,0.422,0.4197,0.4193,0.4221,0.4202,0.4178,0.4224,0.4189,0.4193,0.4228,0.4238,0.4247,0.4289,0.4135,0,0,0,0,0,0.4177,0.4187,0.4202,0.421,0.422,0.4225,0.4232,0.4232,0.4235,0.4234,0.4224,0.4223,0.4238,0.4235,0.4242,0.4257,0.4271,0.4276,0.4284,0.4291,0.4327,0.4366,0.4381,0.4218,0.4218,0.4218,0,0,0.4174,0.4186,0.4189,0.421,0.4219,0.4242,0.4226,0.4242,0.4273,0.4231,0.4259,0.4254,0.4254,0.4279,0.4289,0.4262,0.4345,0.4297,0.4303,0.4336,0.4373,0.4388,0.4402,0.4222,0.4221,0.4221,0,0,0.4174,0.4187,0.4195,0.4217,0.4243,0.4257,0.4267,0.4279,0.4296,0.4315,0.4314,0.4336,0.4323,0.4351,0.4357,0.4422,0.4397,0.441,0.4473,0.451,0.4523,0.4536,0.4568,0.4583,0.4403,0.4403,0.4403,0,0.4171,0.4183,0.4201,0.4223,0.4244,0.4268,0.4289,0.4323,0.434,0.436,0.4329,0.4371,0.4368,0.4435,0.4462,0.4443,0.4453,0.4426,0.452,0.4533,0.4544,0.4575,0.459,0.4406,0.4406,0.4405,0.4405,0,0.4178,0.4197,0.4207,0.4246,0.4276,0.4298,0.435,0.4383,0.4393,0.4415,0.447,0.4477,0.4499,0.4505,0.4501,0.4592,0.4569,0.4532,0.4491,0.4564,0.4592,0.4607,0.4411,0.441,0.4409,0.4408,0,0,0.4138,0.4198,0.4201,0.4218,0.4288,0.4303,0.4383,0.4444,0.4483,0.4513,0.456,0.4617,0.4618,0.4634,0.4639,0.4682,0.4771,0.4646,0.4647,0.4675,0.485,0.4795,0.4805,0.4735,0.4738,0.4741,0.4834,0,0.4133,0.4168,0.4209,0.4249,0.427,0.4334,0.44,0.4468,0.4512,0.4567,0.4625,0.4667,0.4671,0.4676,0.4732,0.4773,0.4815,0.475,0.4781,0.4783,0.472,0.4823,0.4665,0.4731,0.4848,0.4851,0.4853,0,0.4113,0.4145,0.4177,0.4243,0.4258,0.4294,0.4385,0.4453,0.4569,0.4597,0.4672,0.471,0.4832,0.4786,0.4922,0.4875,0.4883,0.49,0.4902,0.4849,0.4757,0.468,0.4754,0.4663,0.4876,0.4874,0.4872,0,0.4049,0.4112,0.4133,0.4157,0.4247,0.4276,0.4336,0.4449,0.4533,0.4632,0.4698,0.4794,0.4883,0.4919,0.4997,0.4952,0.5119,0.5041,0.5002,0.4997,0.4875,0.4854,0.4864,0.512,0.512,0.512,0.512,0,0.4013,0.4024,0.4099,0.4108,0.415,0.4229,0.4301,0.437,0.4513,0.4605,0.472,0.4818,0.4925,0.5036,0.5037,0.5102,0.5152,0.506,0.5035,0.4889,0.4869,0.4791,0.4735,0.5123,0.5122,0.5122,0.5121,0,0.3928,0.3979,0.4004,0.4087,0.4115,0.4145,0.4299,0.4348,0.4507,0.464,0.4689,0.4898,0.5025,0.5123,0.5204,0.5181,0.5073,0.5196,0.5026,0.4979,0.4812,0.4764,0.4603,0.4467,0.5157,0.5156,0.5156,0,0.3885,0.3887,0.3969,0.3984,0.4016,0.4093,0.4141,0.4309,0.4388,0.4668,0.4721,0.494,0.5036,0.5196,0.5186,0.5199,0.5054,0.5047,0.4933,0.4828,0.4756,0.4568,0.4451,0.4791,0.4787,0.4785,0.4782,0,0.3803,0.3831,0.3855,0.3895,0.393,0.399,0.4085,0.4157,0.4354,0.4506,0.4672,0.4787,0.4995,0.4971,0.5056,0.5031,0.4819,0.4987,0.4921,0.4531,0.4285,0.4131,0.471,0.4757,0.476,0.4762,0.4763,0.4764,0.3734,0.3732,0.3764,0.3779,0.3819,0.3836,0.3835,0.3965,0.4088,0.425,0.4472,0.4582,0.4752,0.4854,0.4805,0.4689,0.4642,0.4556,0.4528,0.4364,0.4163,0.47,0.4685,0.4687,0.4689,0.469,0.4692,0,0.3623,0.3627,0.3643,0.3642,0.3606,0.3686,0.3742,0.3713,0.3762,0.3989,0.4123,0.4297,0.4326,0.4417,0.4435,0.4288,0.4063,0.4166,0.3878,0.3799,0.4332,0.425,0.4087,0.4087,0.4087,0.4088,0.4088,0.4088,0.3568,0.3523,0.3519,0.3414,0.3404,0.3311,0.3294,0.3296,0.3402,0.3503,0.3621,0.379,0.412,0.4235,0.4132,0.4016,0.3715,0.3531,0.3514,0.393,0.3963,0.3995,0.3907,0.3675,0.3674,0.283,0.2824,0.2819]},{"header":{"parameterUnit":"m.s-1","parameterCategory":2,"la1":30.2991,"la2":30.254,"lo1":-89.0895,"lo2":-89.0444,"dx":0.0017,"dy":0.0017,"nx":28,"ny":28,"refTime":"2022-11-26T09:00:00:Z","depth":"0","parameterNumber":3,"parameterNumberName":"V-component_of_CURRENTS"},"data":[0,0,0,0,0,0,0,0,0,0,0,0,0,0,0,0,0,0,0,0,0,0,0,0,0,0,0,0,0,0,0,0,0,0,0,0,0,0,0,0,0,0,0,0,0,0,0,0,0,0,0,0,0,0,0,0,0,0,0.0279,0.0278,0,0.0217,0.0216,0.0215,0.0165,0.0165,0.0165,0.0165,0.0081,0.0079,0.0077,0,0,0,0,0,0,0,0,0,0,0,0,0,0.0281,0.0282,0.0279,0.0278,0.0277,0.0217,0.0216,0.0215,0.0165,0.0165,0.0165,0.0164,0.0081,0.0079,0.0077,0,0,0,0,0,0,0,0,0,0,0,0,0,0.0254,0.0282,0.0279,0.0247,0.0244,0.0217,0.0216,0.0215,0.0165,0.0165,0.0165,0.0164,0.0082,0.0079,0.0076,0.0067,0,0,0.0067,0.0066,0,0,0,0,0,0,0,0,0.0256,0.0253,0.0252,0.0249,0.0246,0.0201,0.0186,0.0165,0.0166,0.0193,0.0165,0.0164,0.0121,0.0114,0.0101,0.0063,0.0059,0.0067,0.0065,0.0064,0.0063,0,0,0,0,0,0,0,0.0258,0.0255,0.0252,0.0252,0.0248,0.0212,0.0208,0.0182,0.0157,0.019,0.0187,0.0184,0.0118,0.0104,0.0098,0.0058,0.0067,0.0064,0.0063,0.0061,0.0007,0.0007,0,0,0,0,0,0,0.0275,0.0258,0.0254,0.025,0.0252,0.0213,0.0208,0.0214,0.0158,0.015,0.0185,0.0182,0.0109,0.0102,0.0095,0.0103,0.0064,0.0061,0.0059,0.0007,0.0007,0.0007,0,0,0,0,0,0,0.0275,0.0275,0.0256,0.0254,0.0249,0.0214,0.022,0.0213,0.0203,0.0155,0.0146,0.0184,0.0108,0.0099,0.0081,0.0098,0.006,0.0057,0.0006,0.0007,0.0007,0.0103,0,0,0,0,0,0,0.0275,0.0276,0.0285,0.0255,0.025,0.0255,0.022,0.0212,0.0203,0.0199,0.0151,0.0142,0.0107,0.0085,0.0078,0.0093,0.0055,0.0006,0.0006,0.0007,0.01,0.0107,0.0113,0,0,0,0,0,0.0276,0.0299,0.0286,0.0285,0.0264,0.0256,0.025,0.0221,0.0204,0.0208,0.0173,0.0144,0.0083,0.0084,0.0075,0.009,0.0006,0.0006,0.0007,0.0097,0.0106,0.0113,0,0,0,0,0,0,0.0303,0.0295,0.028,0.0298,0.0283,0.0249,0.0251,0.023,0.0205,0.02,0.0151,0.014,0.0128,0.0094,0.0096,0.0073,0.0038,0.0037,0.011,0.0118,0.0124,0.0154,0.0052,0,0,0,0,0,0.0315,0.0329,0.0309,0.0321,0.0318,0.0285,0.0277,0.0259,0.0234,0.0222,0.0188,0.015,0.0123,0.011,0.0078,0.0071,0.0032,0.0072,0.0079,0.0085,0.0101,0.005,0.0054,0.001,0.001,0.001,0,0,0.0327,0.0324,0.0331,0.0328,0.0311,0.0323,0.0279,0.0277,0.0289,0.0218,0.022,0.0173,0.0125,0.0115,0.0106,0.0091,0.0077,0.0086,0.0092,0.0105,0.0051,0.0056,0.0059,0.001,0.001,0.001,0,0,0.0367,0.0359,0.0386,0.038,0.0369,0.0353,0.0359,0.0333,0.0323,0.0314,0.0267,0.0236,0.0192,0.0166,0.0145,0.017,0.0113,0.0153,0.0217,0.0167,0.017,0.0173,0.0134,0.0132,0.016,0.016,0.016,0,0.0381,0.0416,0.039,0.0413,0.0422,0.0376,0.0409,0.0393,0.0363,0.0364,0.0328,0.0263,0.0219,0.0214,0.0219,0.0189,0.015,0.0193,0.0177,0.0179,0.018,0.0139,0.0136,0.0165,0.0164,0.0164,0.0163,0,0.0442,0.0466,0.0482,0.0501,0.0504,0.0524,0.0505,0.051,0.0485,0.0458,0.0439,0.0368,0.0334,0.0309,0.0272,0.0264,0.023,0.0191,0.0162,0.0191,0.0145,0.014,0.0171,0.017,0.0168,0.0167,0,0,0.0486,0.0522,0.0527,0.0558,0.0557,0.0572,0.0599,0.0613,0.0638,0.0577,0.0598,0.0525,0.0473,0.0446,0.0387,0.034,0.0309,0.0277,0.0272,0.025,0.0204,0.0175,0.0166,0.0262,0.0261,0.0261,0.0171,0,0.0545,0.0621,0.0617,0.0684,0.0727,0.0705,0.0745,0.0743,0.0717,0.0721,0.0639,0.0617,0.0529,0.0511,0.0453,0.0351,0.03,0.0338,0.017,0.0165,0.0145,0.0161,0.0203,0.0125,0.0166,0.0165,0.0164,0,0.0609,0.066,0.0743,0.0807,0.0823,0.085,0.0904,0.093,0.0915,0.0887,0.0835,0.0763,0.0701,0.0612,0.0452,0.0478,0.0355,0.0261,0.0254,0.0193,0.0128,0.01,0.0114,-0.0102,0.0156,0.0157,0.0157,0,0.0674,0.0745,0.0824,0.0841,0.0902,0.0939,0.0972,0.0981,0.103,0.0985,0.1003,0.0885,0.0853,0.068,0.0484,0.0466,0.0297,0.0246,0.0104,0.01,0.0088,0.0084,-0.0115,0.0127,0.0127,0.0128,0.0128,0,0.0746,0.0805,0.086,0.0903,0.1016,0.1017,0.1118,0.1122,0.1153,0.1226,0.1094,0.112,0.0867,0.0743,0.0533,0.0314,0.033,0.0125,0.0077,0.0122,0.0122,-0.0107,-0.0227,0.0124,0.0125,0.0126,0.0126,0,0.08,0.0834,0.0933,0.1013,0.105,0.1126,0.1236,0.1306,0.131,0.1404,0.1402,0.1304,0.1139,0.0877,0.0602,0.0404,0.0054,0.0084,0.0159,0.0121,-0.0208,-0.0323,-0.0573,-0.0658,-0.0074,-0.0075,-0.0076,0,0.0835,0.0894,0.1017,0.1088,0.1125,0.124,0.1334,0.1381,0.1466,0.1531,0.1595,0.1469,0.1421,0.1004,0.0608,0.0238,0.0019,0.002,-0.0011,-0.0214,-0.0379,-0.047,-0.0529,0.0009,0.0008,0.0008,0.0008,0,0.0906,0.0945,0.1028,0.1187,0.1289,0.1432,0.1562,0.1664,0.1743,0.1828,0.191,0.1878,0.15,0.1141,0.0616,0.0353,-0.0116,0.0004,-0.0228,-0.0344,-0.0433,-0.054,0.0054,0.0006,0.0006,0.0006,0.0007,0.0007,0.0953,0.1026,0.114,0.1289,0.1424,0.1604,0.1739,0.189,0.2067,0.2231,0.2168,0.2181,0.1654,0.0955,0.055,-0.0136,-0.0152,-0.0334,-0.0458,-0.0534,-0.0614,-0.0019,-0.0113,-0.0113,-0.0113,-0.0114,-0.0114,0,0.1013,0.1103,0.1238,0.142,0.1577,0.1646,0.1885,0.2038,0.2269,0.2429,0.2512,0.2275,0.1622,0.0948,0.002,-0.049,-0.0665,-0.0778,-0.0898,-0.0938,-0.0423,-0.0416,-0.0552,-0.0552,-0.0551,-0.0551,-0.0551,-0.0551,0.1046,0.1179,0.1254,0.1517,0.1652,0.1887,0.2036,0.2274,0.2457,0.2673,0.2716,0.2709,0.2188,0.0456,-0.0705,-0.0963,-0.1277,-0.1384,-0.1567,-0.1221,-0.1189,-0.1158,-0.1182,-0.1476,-0.1477,-0.1991,-0.1997,-0.2001]}],[{"header":{"parameterUnit":"m.s-1","parameterCategory":2,"la1":30.2991,"la2":30.254,"lo1":-89.0895,"lo2":-89.0444,"dx":0.0017,"dy":0.0017,"nx":28,"ny":28,"refTime":"2022-11-26T09:00:00:Z","depth":"2","parameterNumber":2,"parameterNumberName":"U-component_of_CURRENTS"},"data":[0,0,0,0,0,0,0,0,0,0,0,0,0,0,0,0,0,0,0,0,0,0,0,0,0,0,0,0,0,0,0,0,0,0,0,0,0,0,0,0,0,0,0,0,0,0,0,0,0,0,0,0,0,0,0,0,0,0,0.3659,0.366,0,0.3683,0.3683,0.3683,0.3676,0.3676,0.3676,0.3676,0.367,0.367,0.367,0,0,0,0,0,0,0,0,0,0,0,0,0,0.3614,0.3615,0.3659,0.366,0.366,0.3683,0.3683,0.3683,0.3676,0.3676,0.3676,0.3676,0.367,0.367,0.367,0,0,0,0,0,0,0,0,0,0,0,0,0,0.3632,0.3615,0.3659,0.3663,0.3664,0.3683,0.3683,0.3683,0.3676,0.3676,0.3676,0.3676,0.367,0.367,0.367,0.3673,0,0,0.367,0.367,0,0,0,0,0,0,0,0,0.3631,0.3633,0.3662,0.3663,0.3664,0.368,0.3665,0.3679,0.3676,0.3667,0.3676,0.3676,0.3673,0.3673,0.3673,0.3673,0.3673,0.367,0.367,0.367,0.367,0,0,0,0,0,0,0,0.363,0.3632,0.3665,0.3662,0.3664,0.3666,0.3667,0.3668,0.3668,0.3668,0.3669,0.3678,0.3673,0.3673,0.3673,0.3673,0.367,0.367,0.367,0.367,0.3746,0.3748,0,0,0,0,0,0,0.3635,0.3631,0.3664,0.3666,0.3651,0.3667,0.3669,0.3672,0.3668,0.3669,0.3678,0.3677,0.3673,0.3673,0.3672,0.3728,0.367,0.367,0.367,0.3744,0.3747,0.3749,0,0,0,0,0,0,0.3633,0.3637,0.3663,0.3652,0.3656,0.3668,0.3671,0.3672,0.3689,0.3677,0.3676,0.3696,0.3673,0.3672,0.3696,0.3726,0.367,0.367,0.3742,0.3745,0.3748,0.3806,0,0,0,0,0,0,0.3632,0.3636,0.3646,0.3652,0.3657,0.3688,0.3672,0.3673,0.3696,0.3696,0.3692,0.369,0.3673,0.3696,0.3696,0.3725,0.367,0.3739,0.3743,0.3747,0.3802,0.3811,0.3819,0,0,0,0,0,0.363,0.3639,0.3646,0.3651,0.3668,0.3689,0.3692,0.3697,0.3697,0.371,0.3714,0.3691,0.3721,0.3698,0.3697,0.3726,0.3737,0.3742,0.3747,0.3798,0.3809,0.3819,0,0,0,0,0,0,0.3621,0.364,0.3648,0.3661,0.3684,0.369,0.3705,0.3711,0.3724,0.3728,0.3712,0.3711,0.3748,0.3733,0.3708,0.3764,0.3728,0.3733,0.3768,0.3778,0.3786,0.3824,0.367,0,0,0,0,0,0.3627,0.3641,0.3661,0.3675,0.3689,0.3703,0.3715,0.3723,0.3734,0.374,0.3739,0.3746,0.3765,0.3767,0.3779,0.38,0.3811,0.3823,0.3831,0.3838,0.3871,0.3907,0.3921,0.3764,0.3764,0.3764,0,0,0.3627,0.3642,0.3649,0.3676,0.3692,0.3718,0.3709,0.3737,0.377,0.3737,0.3778,0.378,0.3782,0.3813,0.3828,0.3802,0.389,0.3844,0.385,0.388,0.3913,0.3928,0.3942,0.3768,0.3767,0.3767,0,0,0.3631,0.3651,0.3664,0.3689,0.3725,0.374,0.3756,0.3778,0.3802,0.3831,0.3834,0.3863,0.3862,0.3888,0.3895,0.3962,0.3941,0.3956,0.4019,0.4052,0.4065,0.4077,0.4108,0.4122,0.395,0.3951,0.3951,0,0.3634,0.365,0.3673,0.3699,0.3723,0.3755,0.3781,0.3818,0.3848,0.3872,0.3851,0.3903,0.3905,0.3969,0.3999,0.3983,0.3994,0.3972,0.4062,0.4074,0.4085,0.4115,0.413,0.3954,0.3954,0.3953,0.3953,0,0.3646,0.367,0.3684,0.3729,0.3762,0.3791,0.3845,0.3884,0.3905,0.3931,0.3995,0.4006,0.4034,0.4043,0.4041,0.413,0.4111,0.4073,0.4032,0.4105,0.4131,0.4145,0.3959,0.3958,0.3957,0.3956,0,0,0.3617,0.3678,0.3685,0.3704,0.378,0.3797,0.3879,0.3943,0.3987,0.4028,0.408,0.414,0.4149,0.4165,0.4173,0.4214,0.4302,0.4185,0.4185,0.4212,0.4379,0.4318,0.4327,0.4269,0.4272,0.4275,0.4364,0,0.3618,0.3658,0.3698,0.3744,0.3768,0.3833,0.39,0.397,0.4021,0.4083,0.414,0.4192,0.4197,0.4212,0.4263,0.4303,0.4343,0.4282,0.4311,0.4313,0.4245,0.4343,0.4002,0.4049,0.4378,0.438,0.4382,0,0.3608,0.3639,0.3678,0.3743,0.376,0.3801,0.3896,0.3964,0.4082,0.4118,0.4196,0.4239,0.4356,0.4317,0.4443,0.44,0.4411,0.4426,0.4428,0.4368,0.428,0.4032,0.4062,0.4406,0.4404,0.4402,0.44,0,0.3551,0.3617,0.3643,0.3668,0.3756,0.3792,0.3853,0.3968,0.4052,0.416,0.4228,0.4323,0.4412,0.4446,0.452,0.448,0.4632,0.4559,0.4515,0.451,0.4228,0.4194,0.4633,0.4633,0.4633,0.4632,0.4632,0,0.3522,0.354,0.3615,0.3627,0.3676,0.3754,0.3835,0.3906,0.4048,0.414,0.4257,0.4349,0.4454,0.4556,0.4558,0.4613,0.4664,0.457,0.4544,0.4239,0.4206,0.4516,0.4501,0.4636,0.4635,0.4634,0.4634,0,0.3449,0.35,0.353,0.3615,0.3647,0.3685,0.384,0.389,0.4051,0.4182,0.4234,0.4428,0.4548,0.4639,0.4714,0.4686,0.4705,0.4694,0.4344,0.4277,0.4544,0.4532,0.4652,0.4651,0.465,0.4649,0.4648,0,0.3411,0.3418,0.3505,0.3524,0.3561,0.3646,0.3696,0.3862,0.3937,0.4208,0.4254,0.4464,0.4545,0.4687,0.4658,0.4664,0.4721,0.4343,0.4208,0.4592,0.4554,0.4543,0.4532,0.3849,0.3842,0.3837,0.3832,0,0.3338,0.3371,0.3397,0.3445,0.3487,0.3546,0.3643,0.3715,0.3907,0.4046,0.4199,0.4301,0.4474,0.4344,0.4409,0.4352,0.4313,0.4227,0.4719,0.391,0.3845,0.3806,0.3819,0.378,0.3785,0.3789,0.3792,0.3794,0.3278,0.3278,0.3315,0.334,0.3385,0.3404,0.3406,0.3529,0.3642,0.3786,0.3986,0.4023,0.4094,0.4018,0.3898,0.3815,0.4102,0.3894,0.3907,0.3927,0.3831,0.3769,0.3672,0.3676,0.368,0.3683,0.3686,0,0.3178,0.3185,0.3203,0.3212,0.3182,0.3265,0.3319,0.3286,0.3331,0.3502,0.361,0.3383,0.3346,0.3394,0.3202,0.3221,0.3136,0.3073,0.2915,0.2973,0.3023,0.2874,0.2464,0.246,0.2456,0.2452,0,0,0.3126,0.3086,0.3081,0.2992,0.2996,0.2914,0.2903,0.2891,0.2955,0.2948,0.2955,0.3227,0.3333,0.2861,0.2814,0.2592,0.2746,0.2493,0.3489,0.3365,0.3408,0.3536,0.3379,0,0,0,0,0]},{"header":{"parameterUnit":"m.s-1","parameterCategory":2,"la1":30.2991,"la2":30.254,"lo1":-89.0895,"lo2":-89.0444,"dx":0.0017,"dy":0.0017,"nx":28,"ny":28,"refTime":"2022-11-26T09:00:00:Z","depth":"2","parameterNumber":3,"parameterNumberName":"V-component_of_CURRENTS"},"data":[0,0,0,0,0,0,0,0,0,0,0,0,0,0,0,0,0,0,0,0,0,0,0,0,0,0,0,0,0,0,0,0,0,0,0,0,0,0,0,0,0,0,0,0,0,0,0,0,0,0,0,0,0,0,0,0,0,0,0.0272,0.0272,0,0.0213,0.0212,0.0211,0.0167,0.0167,0.0167,0.0167,0.0087,0.0086,0.0084,0,0,0,0,0,0,0,0,0,0,0,0,0,0.028,0.028,0.0272,0.0272,0.0271,0.0213,0.0212,0.0211,0.0167,0.0167,0.0167,0.0167,0.0088,0.0086,0.0083,0,0,0,0,0,0,0,0,0,0,0,0,0,0.0253,0.0281,0.0273,0.0244,0.0241,0.0213,0.0212,0.0211,0.0167,0.0167,0.0167,0.0166,0.0089,0.0086,0.0083,0.0073,0,0,0.0074,0.0073,0,0,0,0,0,0,0,0,0.0255,0.0253,0.0249,0.0246,0.0242,0.0199,0.0186,0.0164,0.0168,0.0194,0.0167,0.0166,0.0124,0.0118,0.0106,0.0069,0.0065,0.0074,0.0072,0.0071,0.007,0,0,0,0,0,0,0,0.0257,0.0254,0.0247,0.0248,0.0244,0.021,0.0207,0.0181,0.016,0.0191,0.0188,0.0184,0.0122,0.0109,0.0104,0.0064,0.0074,0.0072,0.007,0.0069,0.0014,0.0014,0,0,0,0,0,0,0.0271,0.0257,0.0249,0.0246,0.0249,0.0211,0.0206,0.0212,0.016,0.0153,0.0185,0.0183,0.0114,0.0107,0.0101,0.0105,0.0071,0.0069,0.0067,0.0013,0.0014,0.0014,0,0,0,0,0,0,0.0272,0.0272,0.0252,0.025,0.0246,0.0212,0.0217,0.0211,0.0202,0.0156,0.0148,0.0184,0.0113,0.0105,0.0086,0.0101,0.0067,0.0065,0.0013,0.0013,0.0014,0.0101,0,0,0,0,0,0,0.0273,0.0272,0.028,0.0252,0.0246,0.0248,0.0218,0.021,0.0201,0.0198,0.0153,0.0145,0.0112,0.009,0.0083,0.0096,0.0063,0.0013,0.0013,0.0014,0.0098,0.0104,0.011,0,0,0,0,0,0.0273,0.0293,0.0281,0.028,0.0259,0.0249,0.0243,0.0216,0.0202,0.0206,0.0173,0.0146,0.0088,0.0089,0.008,0.0093,0.0012,0.0013,0.0014,0.0095,0.0103,0.011,0,0,0,0,0,0,0.0298,0.029,0.0276,0.0291,0.0275,0.0243,0.0243,0.0224,0.0201,0.0198,0.0152,0.0142,0.0129,0.0097,0.0099,0.0076,0.0045,0.0043,0.011,0.0116,0.0122,0.0151,0.006,0,0,0,0,0,0.0309,0.0321,0.0301,0.0311,0.0308,0.0276,0.0268,0.0252,0.0228,0.0217,0.0185,0.015,0.0123,0.0111,0.008,0.0071,0.0034,0.0071,0.0077,0.0083,0.0099,0.0047,0.005,0.0016,0.0016,0.0016,0,0,0.032,0.0316,0.0322,0.0317,0.0301,0.0312,0.0271,0.0268,0.0278,0.0212,0.0213,0.0171,0.0125,0.0114,0.0105,0.0091,0.0073,0.0084,0.0089,0.0102,0.0048,0.0051,0.0054,0.0016,0.0016,0.0016,0,0,0.0355,0.0347,0.0372,0.0366,0.0354,0.0339,0.0344,0.0318,0.0309,0.0299,0.0256,0.0227,0.0185,0.0159,0.0139,0.016,0.0105,0.0144,0.02,0.015,0.0153,0.0155,0.0115,0.0113,0.0149,0.0149,0.0149,0,0.0367,0.0399,0.0375,0.0395,0.0402,0.036,0.0389,0.0373,0.0344,0.0344,0.0312,0.025,0.0209,0.0201,0.0205,0.0176,0.0138,0.018,0.016,0.0161,0.0161,0.012,0.0116,0.0153,0.0152,0.0152,0.0152,0,0.0422,0.0445,0.0459,0.0476,0.0477,0.0495,0.0476,0.0479,0.0456,0.0429,0.0409,0.0344,0.0311,0.0286,0.0253,0.0241,0.021,0.0174,0.0147,0.0171,0.0125,0.0119,0.0159,0.0158,0.0156,0.0155,0,0,0.0462,0.0495,0.0499,0.0528,0.0526,0.0539,0.0562,0.0572,0.0593,0.0536,0.0552,0.0484,0.0435,0.041,0.0355,0.0308,0.0275,0.025,0.0245,0.0222,0.0168,0.0138,0.0128,0.023,0.0229,0.0229,0.0136,0,0.0515,0.0585,0.058,0.0643,0.0683,0.0661,0.0696,0.0691,0.0665,0.0665,0.0588,0.0567,0.0486,0.047,0.0412,0.0314,0.0264,0.0304,0.0139,0.0135,0.0114,0.0123,0.0159,0.0078,0.013,0.0129,0.0128,0,0.0573,0.062,0.0697,0.0757,0.0772,0.0796,0.0844,0.0867,0.0846,0.082,0.0769,0.0701,0.0639,0.0558,0.0401,0.0428,0.0312,0.0221,0.0215,0.0156,0.0095,0.006,0.0066,0.0119,0.0119,0.012,0.0121,0,0.0634,0.07,0.0773,0.0789,0.0846,0.088,0.091,0.0913,0.0957,0.0912,0.0927,0.0811,0.078,0.0615,0.0425,0.0412,0.0242,0.0198,0.006,0.0056,0.0042,0.0038,0.0082,0.0082,0.0082,0.0083,0.0083,0,0.0701,0.0756,0.0808,0.0849,0.0954,0.0954,0.1048,0.1051,0.1075,0.1139,0.1013,0.103,0.0791,0.0666,0.0469,0.0254,0.0269,0.0078,0.0032,0.0072,0.0072,0.0069,0.0069,0.0079,0.008,0.0081,0.0081,0,0.0753,0.0784,0.0877,0.0952,0.0987,0.1059,0.1162,0.1225,0.1225,0.1307,0.1305,0.12,0.1034,0.0783,0.0518,0.0332,0.0111,0.0026,0.0093,0.0057,-0.005,-0.0045,-0.0124,-0.0126,-0.0127,-0.0129,-0.013,0,0.0786,0.0841,0.0958,0.1026,0.1061,0.117,0.1259,0.13,0.1375,0.1422,0.1476,0.1345,0.1282,0.0876,0.0507,0.0156,0.0103,-0.0049,-0.0071,-0.0033,-0.0071,-0.0063,-0.0056,-0.0058,-0.0059,-0.0059,-0.0059,0,0.0855,0.0891,0.097,0.1121,0.1219,0.1353,0.1474,0.1566,0.1633,0.1698,0.1755,0.1709,0.134,0.0981,0.0484,0.025,0.0007,-0.0067,-0.0049,-0.0009,0.0022,-0.0013,-0.0007,-0.0062,-0.0062,-0.0062,-0.0062,-0.0062,0.0901,0.0971,0.1078,0.1221,0.1348,0.1516,0.1641,0.1771,0.1922,0.204,0.1973,0.1905,0.1494,0.0868,0.0433,-0.0023,0.001,-0.0149,-0.0145,-0.0142,-0.0115,-0.0088,-0.0187,-0.0188,-0.0188,-0.0188,-0.0188,0,0.0961,0.1045,0.1173,0.1344,0.1491,0.1558,0.1777,0.1904,0.2096,0.2183,0.2227,0.1829,0.1415,0.0931,0.026,-0.013,-0.0151,-0.0258,-0.0201,-0.0194,-0.0189,-0.0163,-0.0249,-0.0251,-0.0252,-0.0254,0,0,0.0993,0.1118,0.1188,0.1433,0.1562,0.178,0.1917,0.2104,0.2222,0.2314,0.2267,0.2168,0.1568,0.1068,0.0528,0.0133,0.0068,0.0064,0.016,0.0302,0.0312,-0.0076,-0.0022,0,0,0,0,0]}],[{"header":{"parameterUnit":"m.s-1","parameterCategory":2,"la1":30.2991,"la2":30.254,"lo1":-89.0895,"lo2":-89.0444,"dx":0.0017,"dy":0.0017,"nx":28,"ny":28,"refTime":"2022-11-26T09:00:00:Z","depth":"4","parameterNumber":2,"parameterNumberName":"U-component_of_CURRENTS"},"data":[0,0,0,0,0,0,0,0,0,0,0,0,0,0,0,0,0,0,0,0,0,0,0,0,0,0,0,0,0,0,0,0,0,0,0,0,0,0,0,0,0,0,0,0,0,0,0,0,0,0,0,0,0,0,0,0,0,0,0.2336,0.2337,0,0.2422,0.2423,0.2424,0.2497,0.2498,0.2499,0.25,0.2599,0.2601,0.2603,0,0,0,0,0,0,0,0,0,0,0,0,0,0.2229,0.2231,0.2336,0.2337,0.2339,0.2422,0.2423,0.2424,0.2497,0.2498,0.2499,0.25,0.2599,0.2601,0.2603,0,0,0,0,0,0,0,0,0,0,0,0,0,0.2289,0.2231,0.2336,0.2387,0.2393,0.2422,0.2423,0.2424,0.2496,0.2498,0.2499,0.2501,0.2598,0.2601,0.2603,0.2586,0,0,0.2611,0.2612,0,0,0,0,0,0,0,0,0.2285,0.2292,0.2378,0.2384,0.239,0.2453,0.2422,0.248,0.2496,0.2454,0.25,0.2502,0.2552,0.2559,0.2567,0.2591,0.2595,0.2611,0.2612,0.2613,0.2614,0,0,0,0,0,0,0,0.2281,0.2289,0.2367,0.238,0.2387,0.2404,0.2414,0.2433,0.2491,0.2458,0.2464,0.2478,0.2556,0.2564,0.257,0.2596,0.2611,0.2613,0.2614,0.2615,0.2766,0.2769,0,0,0,0,0,0,0.2275,0.2285,0.2365,0.237,0.2344,0.2405,0.2416,0.2429,0.2491,0.2502,0.2476,0.2481,0.2559,0.2567,0.2574,0.2691,0.2613,0.2616,0.2617,0.2764,0.2767,0.2769,0,0,0,0,0,0,0.2272,0.2281,0.2361,0.2332,0.2344,0.2406,0.2419,0.243,0.2493,0.2505,0.2517,0.2535,0.2561,0.257,0.2641,0.269,0.2617,0.2619,0.2761,0.2765,0.2768,0.2839,0,0,0,0,0,0,0.2269,0.2279,0.2311,0.2331,0.2345,0.2411,0.2418,0.243,0.2496,0.2505,0.2558,0.2566,0.2563,0.2638,0.2644,0.2692,0.2621,0.2757,0.2762,0.2767,0.2834,0.2845,0.2855,0,0,0,0,0,0.2264,0.229,0.2311,0.2323,0.2378,0.2413,0.2423,0.2469,0.2498,0.2531,0.2575,0.2567,0.2672,0.2641,0.2648,0.2699,0.2755,0.2761,0.2767,0.2829,0.2843,0.2854,0,0,0,0,0,0,0.2262,0.23,0.2325,0.2363,0.2404,0.2428,0.2471,0.2498,0.2558,0.2584,0.2594,0.2605,0.2688,0.2685,0.2651,0.2758,0.2714,0.2721,0.276,0.2773,0.2783,0.2804,0.2623,0,0,0,0,0,0.2274,0.231,0.2343,0.2383,0.2408,0.245,0.2482,0.2514,0.2556,0.2587,0.2623,0.2667,0.2706,0.2735,0.2766,0.2819,0.2822,0.2859,0.2869,0.2878,0.2902,0.2936,0.2952,0.2788,0.2788,0.2788,0,0,0.2286,0.2314,0.2337,0.2387,0.2426,0.2466,0.2475,0.2538,0.259,0.2586,0.2684,0.271,0.2731,0.2796,0.2832,0.2806,0.2928,0.2885,0.2892,0.2912,0.2944,0.2959,0.2973,0.2792,0.2791,0.2791,0,0,0.2307,0.2355,0.2386,0.2425,0.2492,0.2516,0.2546,0.2602,0.2655,0.2726,0.275,0.2812,0.2862,0.2894,0.2911,0.3,0.2985,0.3014,0.3081,0.3114,0.3127,0.3139,0.3163,0.3176,0.3014,0.3015,0.3015,0,0.2327,0.2364,0.2404,0.2444,0.2485,0.2544,0.2588,0.2644,0.2722,0.2765,0.2773,0.2882,0.2908,0.2986,0.3029,0.3025,0.3037,0.3026,0.3126,0.3138,0.3149,0.317,0.3184,0.3019,0.3018,0.3018,0.3017,0,0.2352,0.2406,0.2433,0.2502,0.2551,0.2604,0.2674,0.2745,0.2808,0.2851,0.2959,0.2997,0.3057,0.308,0.3086,0.3186,0.3169,0.3135,0.3088,0.3169,0.3187,0.32,0.3025,0.3023,0.3022,0.3021,0,0,0.2331,0.243,0.2447,0.2486,0.259,0.2622,0.2728,0.2815,0.2884,0.2971,0.3051,0.3144,0.3176,0.3201,0.3223,0.3267,0.336,0.325,0.3249,0.3265,0.3437,0.3227,0.322,0.3341,0.3344,0.3346,0.3417,0,0.2345,0.2416,0.2471,0.2555,0.2595,0.2685,0.2768,0.2864,0.2947,0.3041,0.3117,0.3205,0.3218,0.3262,0.3314,0.3359,0.3399,0.3344,0.3365,0.3367,0.3162,0.323,0.3355,0.3427,0.343,0.3432,0.3433,0,0.2341,0.2393,0.2473,0.2574,0.2603,0.2671,0.2804,0.2891,0.3035,0.3099,0.3203,0.3262,0.3389,0.3363,0.3486,0.3453,0.3467,0.3481,0.3482,0.3273,0.318,0.3331,0.3456,0.3455,0.3453,0.3451,0.345,0,0.2277,0.2387,0.2452,0.249,0.2618,0.2687,0.2773,0.2916,0.3011,0.316,0.324,0.3354,0.3453,0.3492,0.3561,0.3533,0.3661,0.3603,0.3423,0.3408,0.3544,0.353,0.3669,0.3669,0.3669,0.3669,0.3669,0,0.2238,0.2294,0.2435,0.2467,0.2559,0.2666,0.2788,0.2883,0.3047,0.3145,0.3286,0.3367,0.3499,0.3586,0.3593,0.3558,0.3686,0.3454,0.3416,0.3572,0.3562,0.3553,0.3538,0.3672,0.3671,0.367,0.367,0,0.2149,0.2244,0.2323,0.2473,0.2532,0.2605,0.2808,0.2873,0.3058,0.3193,0.3256,0.344,0.3531,0.3624,0.3697,0.3595,0.3573,0.3522,0.3712,0.368,0.3289,0.3278,0.3308,0.3301,0.3295,0.329,0.3286,0,0.2102,0.2137,0.2314,0.2368,0.2447,0.2584,0.2662,0.2858,0.2934,0.3196,0.3231,0.3417,0.3502,0.3447,0.3545,0.3527,0.3486,0.3447,0.3345,0.3294,0.3255,0.3253,0.325,0.3277,0.3276,0.3274,0.3273,0,0.2009,0.2098,0.2164,0.2281,0.2376,0.2468,0.2604,0.2654,0.2861,0.3065,0.3121,0.3166,0.3267,0.3299,0.333,0.3305,0.345,0.3386,0.3396,0.33,0.3258,0.3224,0.3228,0.3253,0.3256,0.3258,0.3259,0,0.1949,0.1973,0.2078,0.2158,0.2269,0.2302,0.2402,0.248,0.2591,0.2868,0.2873,0.3053,0.3225,0.3185,0.3203,0.3177,0.3112,0.2985,0.3014,0.3038,0.2915,0.282,0.2659,0,0,0,0,0,0.187,0.1874,0.1938,0.2006,0.2104,0.2169,0.2326,0.2426,0.264,0.2599,0.2732,0.2794,0.2833,0.2927,0.2843,0.3084,0.3129,0.2972,0.2999,0.3143,0.3166,0.3045,0,0,0,0,0,0,0.1813,0.1869,0.1882,0.1858,0.1873,0.1956,0.2045,0.2189,0.2187,0.2414,0.2449,0.2617,0.2699,0.2847,0.2786,0.2814,0.2769,0.309,0.3082,0.313,0.3151,0.3169,0.3053,0,0,0,0,0]},{"header":{"parameterUnit":"m.s-1","parameterCategory":2,"la1":30.2991,"la2":30.254,"lo1":-89.0895,"lo2":-89.0444,"dx":0.0017,"dy":0.0017,"nx":28,"ny":28,"refTime":"2022-11-26T09:00:00:Z","depth":"4","parameterNumber":3,"parameterNumberName":"V-component_of_CURRENTS"},"data":[0,0,0,0,0,0,0,0,0,0,0,0,0,0,0,0,0,0,0,0,0,0,0,0,0,0,0,0,0,0,0,0,0,0,0,0,0,0,0,0,0,0,0,0,0,0,0,0,0,0,0,0,0,0,0,0,0,0,0.0207,0.0207,0,0.0166,0.0166,0.0165,0.014,0.014,0.014,0.014,0.0082,0.0081,0.0079,0,0,0,0,0,0,0,0,0,0,0,0,0,0.0213,0.0214,0.0207,0.0207,0.0206,0.0166,0.0165,0.0165,0.014,0.014,0.014,0.014,0.0083,0.0081,0.0079,0,0,0,0,0,0,0,0,0,0,0,0,0,0.0195,0.0214,0.0207,0.019,0.0188,0.0166,0.0165,0.0165,0.014,0.014,0.014,0.014,0.0083,0.0081,0.0079,0.0066,0,0,0.0072,0.0071,0,0,0,0,0,0,0,0,0.0196,0.0194,0.0193,0.0191,0.0189,0.0159,0.0146,0.0131,0.014,0.0158,0.014,0.014,0.0107,0.0102,0.0094,0.0064,0.0061,0.0072,0.007,0.0069,0.0069,0,0,0,0,0,0,0,0.0197,0.0196,0.019,0.0192,0.019,0.0166,0.0164,0.0143,0.0132,0.0156,0.0154,0.0151,0.0105,0.0096,0.0093,0.006,0.0072,0.007,0.0068,0.0067,0.0021,0.0021,0,0,0,0,0,0,0.0207,0.0197,0.0192,0.0189,0.0193,0.0167,0.0164,0.0168,0.0133,0.0128,0.0151,0.015,0.01,0.0095,0.009,0.0094,0.0069,0.0067,0.0066,0.002,0.0021,0.0021,0,0,0,0,0,0,0.0207,0.0207,0.0193,0.0192,0.0189,0.0167,0.0171,0.0167,0.0165,0.0129,0.0124,0.0154,0.01,0.0094,0.0079,0.009,0.0066,0.0064,0.002,0.002,0.0021,0.0087,0,0,0,0,0,0,0.0208,0.0207,0.0214,0.0193,0.0189,0.019,0.0171,0.0166,0.0162,0.0161,0.0129,0.0124,0.0099,0.0083,0.0077,0.0087,0.0062,0.002,0.002,0.0021,0.0085,0.009,0.0094,0,0,0,0,0,0.0208,0.0222,0.0215,0.0214,0.02,0.0191,0.0187,0.017,0.0163,0.0166,0.0144,0.0125,0.008,0.0082,0.0075,0.0084,0.002,0.002,0.0021,0.0083,0.0089,0.0094,0,0,0,0,0,0,0.0226,0.022,0.0212,0.0223,0.0211,0.0187,0.0189,0.0177,0.0162,0.0162,0.0128,0.0121,0.0111,0.0086,0.0089,0.0069,0.0046,0.0045,0.0096,0.0101,0.0105,0.0128,0.0061,0,0,0,0,0,0.0234,0.0244,0.0229,0.0236,0.0234,0.0213,0.0208,0.0198,0.0181,0.0174,0.0152,0.0126,0.0105,0.0096,0.0072,0.0064,0.0032,0.0063,0.0068,0.0072,0.0085,0.0038,0.004,0.0021,0.0021,0.0021,0,0,0.0242,0.024,0.0245,0.0241,0.0231,0.0239,0.021,0.021,0.0218,0.017,0.0173,0.0142,0.0106,0.0097,0.009,0.0079,0.0059,0.0072,0.0076,0.0087,0.0038,0.004,0.0042,0.0022,0.0022,0.0022,0,0,0.0266,0.0264,0.0281,0.0277,0.027,0.026,0.0265,0.0247,0.0242,0.0236,0.0205,0.0183,0.0151,0.013,0.0114,0.0128,0.0084,0.0116,0.0159,0.0114,0.0115,0.0116,0.0078,0.0075,0.0119,0.0119,0.0119,0,0.0276,0.03,0.0283,0.0298,0.0305,0.0276,0.0299,0.0287,0.0267,0.0267,0.0247,0.02,0.0169,0.0159,0.0163,0.014,0.0107,0.0145,0.0121,0.0121,0.0121,0.0081,0.0077,0.0122,0.0122,0.0122,0.0121,0,0.0313,0.0333,0.0343,0.0358,0.036,0.0375,0.0362,0.0366,0.0353,0.0333,0.0318,0.0269,0.0244,0.0225,0.02,0.0186,0.016,0.0132,0.0112,0.0127,0.0084,0.0078,0.0127,0.0126,0.0125,0.0124,0,0,0.0337,0.0367,0.0371,0.0397,0.0399,0.0409,0.0427,0.0435,0.0452,0.0411,0.0424,0.0371,0.0337,0.0317,0.0274,0.0234,0.02,0.0189,0.0185,0.016,0.0101,0.0083,0.0075,0.0164,0.0163,0.0163,0.0072,0,0.0375,0.0428,0.0428,0.048,0.0511,0.0501,0.0528,0.0526,0.0507,0.0509,0.0449,0.0436,0.0373,0.0365,0.0314,0.0234,0.0188,0.0227,0.0084,0.008,0.0069,0.0069,0.0161,0.0068,0.0066,0.0065,0.0065,0,0.0413,0.045,0.0512,0.0567,0.058,0.0604,0.0645,0.0664,0.0648,0.063,0.0591,0.0538,0.0486,0.0428,0.029,0.0316,0.022,0.0146,0.0139,0.0099,0.0051,0.0047,0.0054,0.0055,0.0055,0.0056,0.0057,0,0.0451,0.0509,0.0569,0.0584,0.0636,0.0669,0.0698,0.0702,0.0737,0.0707,0.0719,0.0623,0.0598,0.0461,0.0301,0.0297,0.0138,0.0111,0.0001,-0.0002,0.0013,0.0013,0.001,0.001,0.001,0.001,0.0011,0,0.0493,0.0542,0.0596,0.063,0.0721,0.0727,0.0808,0.0816,0.0837,0.0883,0.079,0.0792,0.0605,0.049,0.0329,0.0148,0.0153,0.0014,-0.0025,0.0042,0.0047,0.0008,0.001,0.0007,0.0008,0.0008,0.0009,0,0.0522,0.0555,0.0634,0.0706,0.0743,0.0806,0.0904,0.0953,0.096,0.1018,0.1019,0.0923,0.0773,0.0569,0.0344,0.0202,0.0018,-0.0053,0.0041,0.0008,-0.0095,-0.009,-0.0166,-0.0167,-0.0168,-0.0169,-0.017,0,0.054,0.0584,0.0696,0.0757,0.0796,0.0895,0.0972,0.1016,0.1069,0.1096,0.1128,0.1012,0.0918,0.0597,0.0361,0.0047,-0.0006,-0.0108,-0.0106,-0.0082,-0.0113,-0.0106,-0.0099,-0.0172,-0.0172,-0.0172,-0.0173,0,0.0578,0.0618,0.0686,0.0818,0.091,0.1024,0.1128,0.1181,0.1235,0.1244,0.122,0.1056,0.0886,0.0615,0.0361,0.0132,-0.0044,-0.0121,-0.012,-0.0118,-0.0091,-0.0119,-0.0111,-0.0177,-0.0176,-0.0176,-0.0176,0,0.0606,0.0659,0.0754,0.0872,0.0997,0.1116,0.117,0.1238,0.1299,0.1317,0.1302,0.1113,0.1,0.0659,0.0426,0.0196,0.014,0.0057,0.0047,0.0049,0.0126,0.0193,0.0167,0,0,0,0,0,0.063,0.0695,0.0801,0.093,0.1054,0.1136,0.1262,0.1301,0.1358,0.1353,0.1333,0.1171,0.0842,0.07,0.0471,0.0389,0.0086,0.0109,-0.0019,-0.0199,-0.0194,-0.0144,0,0,0,0,0,0,0.0645,0.0743,0.0799,0.0962,0.1058,0.1203,0.129,0.1327,0.1327,0.1339,0.1172,0.1098,0.0779,0.0974,0.0462,0.0393,0.0276,-0.0041,-0.0046,-0.0202,-0.0198,-0.0194,-0.014,0,0,0,0,0]}]]